Location: Izdebno
(52.6670°N, 16.2170°E)
Time: 19:13:31
(UTC+02:00)

S-56A Canister/Altair - Pass Details

Date: 22 April 2024
Orbit: 638 x 2488 km, 38.9° (Epoch: 19 July)

Event Time Altitude Azimuth Distance (km) Brightness Sun altitude
Rises 21:50:04 0° 260° (W) 3,838 11.7 -13.8°
Reaches altitude 10° 21:53:12 10° 244° (WSW) 3,147 10.9 -14.2°
Maximum altitude 21:58:46 21° 200° (SSW) 2,856 10.2 -14.8°
Enters shadow 22:04:04 14° 165° (SSE) 3,728 10.5 -15.3°
Drops below altitude 10° 22:05:54 10° 158° (SSE) 4,166 - -15.5°
Sets 22:10:58 0° 144° (SE) 5,498 - -16.0°
